Temp
58 58 58 57 55 53 54 66 70 72 70 71 62 68 67 62 76 78 77 77 75 74 72 71 71 71 73 78 79 74 77 75 68 69 75 75 73 70 70 70 62 62 64 61
59 59 58 56 55 53 55 66 68 73 73 67 67 68 70 73 75 74 75 75 75 73 71 68 71 72 77 76 78 76 77 70 64 67 73 74 71 69 69 70 70 62 63 62
59 58 57 56 55 53 57 66 67 70 70 66 68 67 68 69 75 74 73 73 75 73 70 71 69 71 76 76 74 67 74 68 68 68 67 70 66 65 66 70 68 66 66 60
59 59 58 57 55 53 57 65 64 63 67 68 67 68 67 68 69 74 74 73 71 72 69 69 69 71 75 77 70 73 77 66 65 64 66 66 64 63 64 65 62 63 62 62
59 59 58 57 55 53 63 63 63 65 65 61 64 59 68 68 69 71 71 71 70 71 70 71 69 71 71 70 76 72 73 64 66 61 64 65 60 62 63 63 62 61 62 61
59 59 58 57 55 55 64 62 63 62 57 64 66 67 69 70 72 73 74 73 73 71 71 74 74 75 74 74 72 69 69 67 64 59 62 62 59 61 61 60 62 64 60 64
59 59 59 58 56 53 54 60 60 63 65 67 65 66 69 69 69 71 73 74 73 71 76 74 76 74 72 71 68 71 66 63 64 57 59 51 60 65 65 63 63 64 62 63
59 59 59 59 57 55 56 59 61 62 64 64 67 68 67 69 70 70 72 73 71 72 73 70 65 68 68 67 64 68 68 66 58 57 57 56 58 60 62 61 61 64 63 63
59 59 59 59 58 56 56 60 59 62 62 66 65 66 65 68 67 70 71 73 72 73 69 67 58 58 62 61 63 66 67 66 68 58 56 53 59 64 67 67 57 63 63 62
59 59 60 59 59 56 55 61 58 62 62 68 67 67 66 66 66 68 66 67 70 71 66 63 60 61 63 59 60 60 62 62 62 59 59 60 63 65 68 54 58 64 63 63
59 59 59 59 59 58 56 62 60 61 62 66 68 71 68 67 67 67 66 67 67 67 63 62 61 61 62 61 60 61 62 61 60 56 55 53 66 63 59 62 62 63 62 62
58 59 59 58 58 57 57 61 60 58 60 65 64 70 72 73 73 70 65 66 64 68 64 61 62 61 61 58 59 60 60 64 63 62 62 61 66 65 65 67 64 62 62 63
58 58 59 58 58 57 56 56 55 58 60 66 68 71 73 74 74 77 70 67 67 65 66 66 64 60 63 61 62 60 60 60 63 59 60 62 64 65 66 65 64 63 63 62
58 58 58 58 58 57 56 57 57 58 59 60 69 72 72 73 75 75 73 72 67 68 68 67 66 64 62 63 61 63 64 62 59 57 59 61 63 65 66 64 64 62 61 60
57 57 58 58 57 56 56 56 59 59 60 60 65 70 72 73 74 73 72 72 70 69 67 67 66 64 62 61 62 63 64 62 63 64 66 65 63 65 64 62 61 60 58 59
57 57 57 57 56 55 59 61 60 61 60 59 61 68 68 72 73 72 70 69 67 68 69 67 65 63 65 62 60 66 66 65 67 66 66 65 64 64 64 61 60 59 59 59
57 57 56 56 55 57 60 61 60 55 59 60 61 63 68 67 70 69 70 68 67 69 66 65 66 65 65 63 60 68 66 65 63 66 64 60 63 60 63 62 60 59 60 61
57 56 56 55 55 54 60 64 55 56 61 61 57 61 64 68 68 67 65 68 67 64 65 63 65 63 63 60 65 64 63 64 63 64 66 67 65 64 61 62 60 59 59 59
56 56 55 58 60 61 61 58 57 60 61 58 57 58 59 67 63 64 65 65 64 63 64 64 63 62 59 65 65 63 62 63 64 65 64 64 62 61 60 60 59 58 58 59
55 58 59 58 60 59 60 59 59 59 59 58 57 57 60 63 63 62 63 62 62 60 61 63 60 61 65 65 66 67 65 66 64 60 58 60 60 60 60 60 60 60 59 59
58 56 57 59 57 60 58 55 55 56 55 57 59 58 60 63 62 62 60 60 59 57 59 59 59 59 64 64 64 64 66 66 66 68 68 66 64 62 60 60 60 60 60 59
54 54 54 57 58 56 53 52 54 53 55 58 59 60 60 62 62 62 59 59 58 53 60 57 55 63 63 62 63 62 64 66 66 67 65 64 64 64 63 62 62 62 62 59
55 56 55 55 54 43 48 47 51 53 58 59 59 59 62 60 62 59 59 55 56 59 55 55 60 63 62 62 62 62 64 66 66 64 65 65 63 63 63 62 64 63 61 61
53 52 36 50 48 51 53 55 55 60 59 60 61 60 61 60 60 59 55 57 57 51 48 53 63 61 60 60 62 63 63 65 65 65 64 64 63 63 63 64 65 63 61 62
51 51 40 48 55 55 57 57 57 60 60 60 60 60 62 60 57 57 55 51 49 53 54 60 63 59 59 59 61 63 64 64 64 65 64 64 64 63 64 65 65 64 63 61
50 49 49 52 52 55 57 58 59 59 58 59 59 54 53 53 56 52 52 50 50 57 59 62 59 59 59 60 61 63 65 64 63 65 65 65 64 64 64 66 65 64 62 60
46 51 53 53 53 54 56 57 60 59 56 52 52 53 53 54 52 50 53 54 59 61 60 60 59 60 60 61 62 63 64 64 62 58 63 64 65 65 63 61 64 65 63 61
MSLP
1020.18 1019.49 1018.72 1017.78 1016.77 1015.56 1014.63 1014.02 1013.00 1012.94 1012.97 1012.38 1012.24 1011.05 1010.30 1009.67 1008.28 1007.73 1007.25 1006.98 1006.92 1007.18 1007.74 1008.01 1008.12 1008.18 1008.48 1008.55 1008.36 1008.29 1008.65 1008.66 1008.74 1009.21 1009.90 1010.17 1009.91 1010.02 1009.96 1009.44 1010.35 1011.11 1011.75 1013.63
1020.16 1019.44 1018.66 1017.77 1016.88 1016.20 1015.52 1014.24 1013.40 1012.82 1012.55 1011.95 1011.60 1011.00 1010.13 1009.39 1008.41 1008.05 1007.63 1007.34 1007.46 1007.72 1007.97 1008.38 1008.45 1008.59 1008.79 1008.68 1008.58 1008.77 1008.86 1009.34 1009.60 1009.88 1010.21 1010.48 1010.54 1011.10 1011.11 1010.75 1010.94 1011.38 1012.03 1013.68
1020.07 1019.31 1018.55 1017.68 1016.88 1016.21 1015.87 1014.45 1013.45 1012.86 1012.50 1012.30 1011.51 1010.87 1010.01 1009.18 1008.57 1008.34 1008.19 1007.97 1007.96 1008.03 1008.44 1008.63 1008.74 1008.80 1009.06 1009.13 1009.16 1009.23 1009.13 1009.91 1009.69 1009.97 1010.46 1011.01 1011.46 1011.95 1012.08 1011.62 1011.43 1011.85 1012.60 1014.11
1020.14 1019.40 1018.63 1017.75 1016.89 1016.20 1015.97 1014.64 1014.02 1013.73 1012.63 1012.10 1011.57 1011.07 1010.38 1009.37 1008.77 1008.50 1008.37 1008.29 1008.37 1008.27 1008.72 1008.99 1009.10 1009.23 1009.27 1009.41 1009.61 1009.70 1009.84 1010.06 1010.96 1011.56 1011.81 1012.11 1012.66 1012.99 1012.94 1012.72 1013.06 1013.01 1013.88 1014.67
1020.25 1019.56 1018.87 1018.00 1016.95 1016.25 1015.75 1015.35 1014.78 1013.95 1013.01 1012.39 1011.72 1011.36 1010.21 1009.55 1009.33 1008.97 1008.48 1008.45 1008.87 1008.85 1009.05 1009.35 1009.49 1009.57 1009.68 1009.77 1009.79 1010.03 1010.39 1010.97 1011.58 1012.38 1012.97 1013.17 1013.66 1014.13 1014.07 1013.92 1014.31 1014.50 1014.94 1015.60
1020.35 1019.76 1019.13 1018.41 1017.45 1016.29 1016.12 1016.20 1015.70 1014.78 1013.38 1012.35 1011.62 1011.05 1010.33 1009.76 1009.61 1009.54 1009.18 1009.25 1009.35 1009.77 1010.21 1010.28 1010.40 1010.39 1010.39 1010.45 1010.59 1010.66 1010.97 1011.40 1011.98 1012.83 1013.64 1013.92 1014.28 1014.50 1014.63 1014.97 1015.30 1015.29 1015.44 1016.16
1020.45 1019.96 1019.45 1018.85 1018.30 1018.09 1017.90 1017.14 1016.37 1014.84 1013.41 1012.41 1011.89 1011.21 1010.60 1010.19 1010.06 1009.71 1010.01 1010.05 1010.19 1011.17 1010.95 1011.03 1010.92 1010.89 1010.95 1011.09 1011.43 1011.50 1011.56 1012.02 1012.55 1013.33 1014.09 1014.19 1014.77 1015.18 1015.34 1015.41 1015.75 1016.23 1016.62 1017.04
1020.60 1020.12 1019.62 1019.16 1018.66 1018.24 1017.89 1017.42 1016.68 1015.38 1013.98 1013.16 1012.14 1011.53 1011.10 1010.78 1010.57 1010.48 1010.57 1010.92 1011.44 1011.45 1011.14 1011.10 1011.14 1011.16 1011.22 1011.49 1011.98 1011.90 1011.95 1012.03 1012.71 1013.27 1013.67 1014.60 1015.11 1015.41 1015.54 1015.58 1015.90 1016.63 1017.07 1017.60
1020.65 1020.15 1019.70 1019.28 1018.83 1018.37 1017.92 1017.50 1017.27 1016.11 1014.78 1013.45 1012.97 1012.21 1011.85 1011.46 1011.31 1011.08 1011.26 1011.60 1011.76 1011.55 1011.60 1011.58 1011.44 1011.22 1011.30 1011.57 1012.07 1012.48 1012.32 1012.24 1012.08 1013.36 1013.44 1013.77 1014.43 1015.32 1015.87 1016.18 1016.19 1017.11 1017.62 1017.90
1020.62 1020.18 1019.74 1019.34 1018.90 1018.46 1018.23 1017.52 1017.47 1016.56 1015.26 1013.91 1013.41 1012.68 1012.45 1012.42 1012.15 1011.90 1012.13 1012.18 1012.03 1011.95 1011.90 1011.87 1011.83 1011.73 1011.98 1011.85 1011.99 1012.42 1012.52 1012.70 1012.69 1013.36 1013.66 1014.28 1015.12 1015.81 1016.28 1016.55 1017.11 1017.38 1017.94 1018.16
1020.59 1020.26 1019.87 1019.44 1019.01 1018.60 1018.30 1017.53 1017.51 1017.12 1015.96 1014.44 1013.79 1013.16 1012.80 1012.77 1012.61 1012.32 1012.86 1013.01 1012.76 1012.62 1012.39 1012.42 1012.34 1012.38 1012.51 1012.51 1012.76 1012.75 1012.61 1012.88 1013.42 1014.15 1014.28 1014.71 1015.50 1016.35 1016.45 1016.74 1017.45 1017.90 1018.33 1018.53
1020.45 1020.17 1019.84 1019.46 1019.08 1018.72 1018.26 1017.73 1017.66 1017.66 1016.71 1015.16 1014.41 1013.56 1013.19 1012.85 1012.72 1012.68 1013.12 1013.14 1012.99 1013.01 1012.88 1013.22 1013.07 1012.84 1012.98 1012.99 1012.79 1013.44 1013.41 1013.53 1013.53 1014.24 1014.48 1015.29 1015.74 1016.03 1016.78 1017.16 1017.60 1018.29 1018.64 1018.77
1020.21 1020.02 1019.75 1019.41 1019.08 1018.84 1018.66 1018.28 1018.10 1017.49 1016.54 1015.02 1014.10 1013.25 1013.00 1012.94 1012.83 1012.67 1012.71 1013.15 1013.33 1013.47 1013.61 1013.30 1013.34 1013.15 1013.21 1012.88 1012.89 1013.25 1013.77 1014.15 1013.99 1014.80 1015.34 1015.67 1016.18 1016.75 1017.15 1017.68 1018.06 1018.59 1018.87 1018.96
1020.00 1019.85 1019.61 1019.32 1019.01 1018.79 1018.58 1018.34 1018.13 1017.77 1017.02 1015.53 1013.81 1013.21 1013.03 1012.99 1012.85 1012.74 1012.76 1012.78 1013.64 1013.65 1013.74 1013.43 1013.34 1013.33 1013.76 1013.37 1013.48 1013.39 1013.84 1014.27 1014.39 1014.88 1015.56 1016.09 1016.36 1016.72 1017.27 1017.97 1018.45 1018.80 1019.05 1019.12
1019.74 1019.63 1019.42 1019.19 1018.93 1018.64 1018.38 1018.24 1017.97 1017.88 1017.68 1016.04 1014.31 1013.45 1013.19 1013.00 1012.89 1012.85 1012.95 1013.02 1013.22 1013.40 1013.63 1013.44 1013.37 1013.75 1013.89 1014.01 1013.83 1013.23 1013.59 1013.58 1013.67 1013.55 1014.16 1014.85 1015.53 1016.40 1017.33 1017.89 1018.48 1019.00 1019.14 1019.05
1019.41 1019.32 1019.13 1018.96 1018.82 1018.53 1018.12 1017.91 1017.88 1017.87 1017.73 1016.57 1014.80 1014.03 1013.43 1013.13 1013.08 1013.04 1013.13 1013.33 1013.48 1013.55 1013.42 1013.57 1013.80 1014.03 1014.02 1013.57 1013.21 1012.75 1013.10 1013.48 1013.66 1013.90 1014.64 1015.29 1015.93 1016.75 1017.51 1018.11 1018.66 1019.00 1019.13 1019.23
1019.09 1018.96 1018.79 1018.63 1018.58 1018.53 1018.16 1017.98 1017.85 1017.98 1017.82 1016.62 1015.05 1013.92 1013.65 1013.55 1013.32 1013.45 1013.43 1013.66 1013.67 1013.53 1013.71 1013.81 1013.77 1014.02 1014.00 1013.45 1012.68 1012.49 1013.01 1013.63 1014.19 1014.53 1015.02 1015.99 1016.46 1016.93 1017.77 1018.34 1018.78 1019.12 1019.19 1019.18
1018.76 1018.55 1018.38 1018.17 1018.01 1018.15 1017.72 1017.26 1017.49 1017.83 1017.31 1016.57 1015.38 1014.03 1013.75 1013.63 1013.24 1013.43 1013.98 1013.57 1013.67 1013.89 1013.90 1014.14 1013.81 1014.16 1013.90 1012.95 1012.44 1012.87 1013.36 1014.00 1014.50 1014.85 1015.08 1015.17 1016.14 1017.11 1017.88 1018.41 1018.87 1019.00 1018.95 1019.01
1018.41 1018.13 1017.90 1017.77 1017.66 1017.45 1017.44 1017.51 1017.60 1017.48 1017.40 1016.25 1015.58 1014.46 1013.74 1013.78 1013.80 1013.85 1013.94 1013.84 1013.56 1014.20 1013.80 1013.98 1014.05 1013.60 1012.91 1012.11 1012.25 1012.72 1013.19 1013.45 1013.89 1014.81 1015.35 1015.76 1016.31 1017.09 1017.80 1018.24 1018.75 1018.91 1018.97 1018.93
1018.10 1017.89 1017.75 1017.43 1017.47 1017.55 1017.47 1017.47 1017.27 1016.97 1016.70 1016.43 1015.40 1015.19 1014.16 1014.21 1013.92 1013.88 1013.99 1013.93 1013.86 1013.71 1014.24 1014.31 1013.83 1012.87 1012.24 1012.28 1012.31 1012.46 1012.94 1013.38 1013.95 1014.60 1015.38 1015.84 1016.31 1016.84 1017.47 1017.92 1018.32 1018.58 1018.86 1018.95
1018.04 1017.97 1017.78 1017.63 1017.50 1017.31 1017.05 1016.75 1016.63 1016.45 1015.99 1015.69 1015.12 1014.96 1014.40 1014.52 1014.04 1013.80 1014.22 1013.85 1014.08 1013.78 1014.08 1013.89 1013.40 1012.69 1012.30 1012.52 1012.43 1012.55 1012.79 1013.31 1013.72 1013.86 1014.30 1015.05 1015.59 1016.32 1016.96 1017.54 1018.03 1018.27 1018.50 1018.68
1018.64 1018.63 1018.33 1017.91 1017.28 1017.01 1016.74 1016.34 1016.28 1015.85 1015.10 1015.00 1014.84 1014.81 1014.81 1014.60 1014.53 1013.95 1014.36 1013.91 1014.12 1013.82 1014.17 1013.72 1012.89 1012.55 1012.64 1012.73 1012.56 1012.70 1012.97 1013.25 1013.67 1014.14 1014.52 1015.11 1015.66 1016.10 1016.59 1017.07 1017.47 1017.80 1018.08 1018.45
1018.55 1018.42 1017.88 1017.45 1017.29 1016.80 1016.23 1015.63 1015.33 1015.01 1014.72 1014.63 1014.63 1014.62 1014.55 1014.78 1014.45 1014.22 1014.05 1013.99 1014.02 1014.30 1013.89 1013.07 1012.70 1012.78 1012.91 1012.91 1012.83 1012.89 1013.19 1013.52 1013.87 1014.32 1014.69 1015.14 1015.60 1016.04 1016.37 1016.68 1016.97 1017.35 1017.70 1017.99
1018.28 1018.00 1017.77 1017.29 1016.77 1016.25 1015.66 1015.33 1015.10 1014.90 1014.73 1014.58 1014.48 1014.34 1014.29 1014.37 1014.13 1014.22 1014.00 1014.35 1014.34 1013.88 1013.48 1012.80 1012.77 1013.11 1013.21 1013.16 1013.06 1013.01 1013.17 1013.48 1013.81 1014.19 1014.65 1015.05 1015.43 1015.73 1016.03 1016.25 1016.47 1016.88 1017.11 1017.34
1018.18 1017.98 1017.40 1016.96 1016.46 1016.21 1015.87 1015.65 1015.35 1015.06 1014.92 1014.60 1014.41 1014.28 1014.08 1014.00 1014.11 1014.27 1014.25 1014.21 1013.73 1013.36 1012.82 1012.92 1013.15 1013.47 1013.48 1013.35 1013.39 1013.32 1013.39 1013.62 1013.91 1014.19 1014.41 1014.71 1015.05 1015.37 1015.57 1015.80 1016.00 1016.30 1016.56 1016.86
1018.15 1017.91 1017.33 1017.01 1016.64 1016.03 1015.79 1015.60 1015.26 1015.28 1014.98 1014.75 1014.45 1014.28 1014.09 1013.97 1013.92 1014.06 1013.71 1013.65 1013.11 1012.98 1013.23 1013.31 1013.57 1013.57 1013.58 1013.51 1013.51 1013.57 1013.62 1013.70 1013.90 1014.18 1014.33 1014.50 1014.73 1014.88 1015.06 1015.31 1015.54 1015.75 1016.02 1016.23
1017.97 1017.55 1017.40 1017.15 1016.80 1016.34 1016.08 1015.93 1015.47 1015.46 1015.17 1014.99 1014.65 1014.32 1014.00 1014.22 1013.76 1013.63 1013.50 1012.95 1012.86 1013.06 1013.32 1013.50 1013.66 1013.66 1013.58 1013.54 1013.54 1013.60 1013.68 1013.79 1013.95 1014.08 1014.31 1014.38 1014.51 1014.73 1014.87 1014.94 1014.91 1015.18 1015.38 1015.60
Wind_Speed
20 20 21 23 24 26 3 2 2 3 3 2 1 2 3 2 4 2 4 1 3 3 4 4 3 4 3 5 5 8 3 3 2 4 3 3 3 3 2 4 4 2 3 5
19 20 21 22 22 18 4 2 2 2 3 2 2 2 3 4 3 3 3 2 3 2 4 4 2 2 2 6 3 5 7 2 5 5 5 2 3 4 3 4 1 3 4 5
19 21 21 22 22 16 2 1 2 2 2 1 0 2 2 3 1 0 1 2 2 3 3 4 4 3 4 4 4 6 5 4 2 3 4 3 5 3 2 5 4 0 3 9
19 20 21 22 23 13 3 3 3 3 2 2 1 1 2 3 2 0 3 4 4 3 4 2 3 1 2 4 4 3 1 4 4 6 4 5 5 3 0 2 2 4 6 5
18 19 20 22 24 12 1 3 3 1 1 1 3 2 3 2 1 3 2 5 3 2 4 1 4 2 1 2 4 3 3 5 4 4 5 6 6 4 6 7 7 6 4 4
17 18 19 20 22 14 3 1 1 3 1 1 3 2 2 1 3 5 6 6 5 9 5 3 4 3 4 2 1 3 2 7 4 4 6 3 5 4 2 3 2 2 4 3
16 17 17 18 17 11 1 2 2 2 2 1 2 3 2 3 2 4 3 3 2 3 3 6 6 8 5 2 4 2 6 6 2 4 5 6 5 1 2 1 3 3 2 3
14 15 16 16 16 14 1 1 3 2 1 2 2 5 3 2 5 5 4 5 4 1 3 1 1 1 3 4 6 3 1 5 5 4 6 2 6 6 6 6 3 7 5 4
13 14 15 16 16 14 1 1 2 2 2 4 3 3 4 2 2 2 3 3 3 2 3 1 4 5 2 4 3 3 6 5 1 4 3 4 4 8 3 5 5 7 5 4
13 15 15 16 16 15 3 2 3 2 2 0 1 3 3 1 1 1 2 4 2 2 2 2 3 3 1 4 6 4 4 3 3 4 4 1 7 8 7 5 4 8 2 5
11 13 13 14 15 15 6 2 3 3 2 4 2 1 1 2 1 0 3 2 2 2 2 2 2 3 2 2 1 1 3 5 3 3 3 6 11 7 6 5 4 3 3 4
9 11 12 12 12 13 9 2 2 2 3 4 3 5 6 3 0 2 1 3 1 1 2 2 2 3 3 2 4 2 4 1 1 4 2 4 8 3 7 5 5 3 2 6
8 10 12 12 11 11 9 3 3 2 2 3 3 1 2 1 5 3 2 2 2 3 2 2 2 2 2 3 2 3 2 2 2 5 5 6 6 6 5 4 4 2 2 7
7 9 10 11 11 10 9 2 2 1 1 2 2 3 0 3 2 1 2 4 5 4 0 1 1 2 2 1 2 2 2 7 5 2 3 3 6 7 8 7 4 1 3 5
7 8 9 10 10 10 4 2 0 1 3 3 3 7 1 4 1 5 5 5 4 2 2 1 1 2 3 2 1 4 6 6 6 3 9 3 3 12 9 6 3 2 3 6
7 8 9 9 8 9 2 2 3 1 2 2 2 3 2 4 4 4 4 3 3 1 1 1 2 1 3 3 3 3 6 6 3 3 11 7 8 12 8 7 4 2 2 3
8 9 10 9 6 2 2 3 3 3 2 2 3 1 2 3 1 2 1 2 2 1 2 2 1 2 2 2 4 2 7 6 5 12 13 7 9 6 9 8 5 3 2 3
9 10 10 10 7 4 2 1 1 5 0 1 2 2 1 4 2 2 2 1 1 2 1 2 2 3 2 4 5 2 6 8 9 12 3 5 11 12 10 7 6 4 4 4
10 11 10 1 1 1 2 4 5 0 2 2 1 2 2 2 2 1 2 1 2 1 1 1 2 2 5 5 5 7 12 12 12 11 5 11 13 13 11 8 6 4 4 1
9 2 2 1 1 6 1 2 1 2 0 0 3 0 1 2 0 2 1 1 1 2 2 1 3 3 6 7 7 5 10 10 15 14 9 10 11 12 12 10 7 5 4 3
1 1 1 3 6 2 0 1 2 1 3 3 1 4 1 1 1 2 1 1 1 2 3 3 1 3 2 6 6 5 9 12 13 4 8 13 11 13 12 11 9 7 5 4
2 2 1 2 0 1 2 1 1 3 2 3 2 1 3 1 1 2 2 1 2 2 1 2 2 2 3 7 6 2 8 13 12 6 8 10 8 11 11 10 10 9 7 5
1 1 0 1 1 1 4 4 3 2 2 3 3 3 1 2 1 3 2 3 1 1 3 3 2 3 6 8 4 3 7 9 9 7 6 8 8 9 10 10 9 8 7 7
0 1 3 3 3 3 3 1 1 2 2 1 2 2 1 1 2 1 2 2 2 3 3 3 0 4 8 6 2 7 10 9 10 9 9 9 10 10 9 8 7 8 9 7
2 2 3 4 1 2 2 3 3 1 3 2 3 2 2 2 2 0 1 3 4 4 2 1 2 6 6 2 2 5 7 7 7 8 9 9 9 9 8 8 8 8 8 7
2 2 2 2 2 2 2 1 1 3 2 1 1 2 2 2 1 3 5 2 4 0 2 2 4 4 4 1 3 5 5 6 5 7 8 7 8 10 9 6 6 8 8 7
3 2 1 2 2 2 1 2 2 3 1 1 1 4 2 2 2 3 4 4 1 2 3 3 4 3 3 3 3 3 4 5 6 5 8 9 8 7 7 9 9 8 7 8
Wind_Direction
336 336 339 338 339 341 31 321 119 47 259 133 359 203 212 304 282 182 265 173 70 101 116 130 149 179 310 351 193 161 152 104 77 105 107 34 46 76 30 300 140 65 326 117
337 339 341 341 344 354 324 43 72 94 290 173 190 278 270 269 291 10 340 99 31 49 113 117 131 135 65 11 160 149 167 113 133 177 179 151 61 45 69 95 170 183 272 124
340 342 343 343 347 350 290 252 138 105 72 9 42 345 291 287 208 64 23 76 154 132 82 38 129 111 21 10 79 66 89 106 256 271 61 82 132 55 7 285 261 340 271 144
342 344 346 346 349 350 290 4 67 2 172 166 205 267 306 290 188 98 32 107 53 96 104 82 88 137 174 99 14 82 190 108 94 60 82 91 99 71 179 155 113 269 124 151
344 346 348 349 351 351 50 10 340 21 80 251 176 178 194 238 161 331 34 88 53 56 105 35 154 155 33 25 21 64 30 118 133 85 83 113 122 118 103 98 116 105 137 162
345 347 350 353 356 348 35 41 174 285 21 109 199 135 301 139 170 56 51 106 89 74 60 41 49 44 76 76 13 84 72 147 177 142 141 152 203 166 150 122 179 170 215 82
345 347 351 355 1 20 305 26 284 299 50 64 29 330 20 46 6 112 75 57 90 61 111 118 99 74 79 137 53 349 136 124 104 117 173 226 71 192 216 214 183 183 190 185
343 347 350 355 357 6 305 357 315 346 52 339 45 27 25 44 47 65 68 44 24 226 78 106 104 133 189 106 39 135 309 145 115 178 203 60 187 190 180 201 206 200 216 212
342 348 351 353 356 359 304 3 304 307 306 41 305 347 12 54 50 94 77 59 12 58 67 136 209 208 210 188 127 74 93 72 209 162 211 246 82 143 145 161 245 174 208 257
340 346 350 352 355 358 345 350 346 284 309 208 285 44 24 94 79 46 338 1 46 350 115 194 213 198 252 188 176 149 119 69 197 160 221 147 149 141 154 222 73 162 233 280
332 340 343 346 352 356 360 336 9 334 294 286 255 323 133 136 67 238 81 207 147 110 153 225 156 220 138 161 115 212 172 164 156 141 208 238 156 139 219 95 134 163 212 286
323 334 338 340 346 354 359 304 35 318 236 311 309 289 288 291 247 143 143 6 138 121 117 186 157 174 185 178 179 158 202 312 150 239 55 107 161 77 115 138 138 160 272 314
314 327 334 336 339 352 6 300 327 272 301 259 275 154 61 131 214 258 299 188 136 167 357 124 87 232 196 188 193 148 144 159 130 183 154 162 155 131 136 140 138 133 330 319
304 318 327 330 331 341 353 289 5 285 331 293 111 346 247 345 203 177 340 108 109 93 230 102 171 243 218 182 50 255 49 163 149 137 160 165 206 188 166 148 134 86 342 335
298 309 316 322 327 334 335 229 25 308 322 316 301 309 13 313 194 105 109 130 130 144 159 198 202 111 185 93 216 211 191 165 197 229 171 161 142 172 155 147 126 52 353 344
295 303 304 312 327 338 286 224 163 48 343 279 286 4 322 8 122 102 80 76 84 88 191 147 173 55 265 205 222 243 195 197 193 139 141 95 119 140 145 139 136 85 57 358
293 295 299 304 314 318 256 341 41 157 312 267 286 323 63 329 96 78 91 61 82 338 113 192 175 158 235 227 240 184 189 174 143 135 122 111 158 166 154 144 135 126 69 29
295 297 299 298 297 227 249 76 186 185 198 271 274 267 207 7 153 158 355 146 162 54 75 162 197 158 240 249 243 203 153 149 151 167 82 116 146 142 149 146 153 144 105 57
302 302 300 216 211 209 51 96 143 142 291 292 242 255 140 4 83 42 135 334 215 63 229 138 236 180 230 232 209 189 178 180 173 170 140 144 156 160 162 158 165 161 160 67
307 296 246 167 76 327 177 194 222 195 73 192 253 47 205 298 141 108 196 14 87 233 77 234 234 259 275 274 252 256 187 176 151 145 157 167 171 173 174 180 178 177 192 247
354 5 308 352 317 188 352 242 242 147 228 189 227 224 263 102 209 144 332 124 120 241 97 277 196 251 285 357 326 240 188 178 181 183 173 183 184 181 180 184 192 192 198 227
12 325 286 273 11 76 247 241 217 226 258 181 221 147 220 136 276 212 147 172 190 224 8 251 240 253 321 333 326 241 187 175 177 167 161 175 178 182 183 188 195 204 208 208
190 222 187 346 121 106 216 194 193 231 187 187 189 161 189 157 193 91 188 197 219 161 213 236 255 311 319 328 301 170 171 175 175 165 165 169 176 176 186 195 202 204 212 220
222 182 312 218 181 236 212 249 327 356 279 277 207 141 242 100 161 93 206 85 226 223 229 220 101 327 322 327 261 162 167 179 181 187 179 182 184 192 200 210 200 202 223 221
197 164 219 215 314 258 280 296 277 330 296 208 165 142 239 123 130 358 116 195 240 235 230 180 337 327 326 328 203 183 176 185 195 190 190 193 194 201 212 216 215 215 231 225
180 215 222 173 249 201 212 248 312 12 316 231 242 136 147 184 152 177 209 221 228 161 228 294 321 329 330 257 207 222 218 211 214 218 218 208 202 208 219 220 218 223 226 235
196 223 213 270 292 279 305 295 333 338 286 69 266 181 180 115 222 213 196 220 231 204 214 231 237 268 256 214 215 223 234 255 251 221 235 232 223 214 218 232 233 229 228 233